STARLINK-1897 (46761 NORAD) Tracking and Keplerian Element Data
This shows tracking and keplerian element data for the satellite.
Feedback or suggestion? Click here.
Element | Value |
Catalog | 46761 |
Name | STARLINK-1897 |
Epoch Orbit | 175 |
Epoch Day | 14.91667824 |
Epoch Year | 2021 |
RAAN | 135.238 |
Inclination | 53.0556 |
Eccentricity | 0.0001282 |
Argument of Perigee | 103.9675 |
Mean Anonmoly | 232.2863 |
Mean Motion | 15.06409988 |
Decay Rate | -0.00026469 |
L1 | 1 46761U 20074Y 21014.91667824 -.00026469 00000-0 -17642-2 0 9999 |
L2 | 2 46761 53.0556 135.2380 0001282 103.9675 232.2863 15.06409988 1755 |
Live tracking and technical data element details for STARLINK-1897 (NORAD 46761). STARLINK-1897 can be tracked NOW for your location showing map with azimuth and elevation plus other details from your city location.
Track the satellite on the map from your city or location and see movement details for azimuth, elevation, latitude, longitude, range, height, and movement on the map or in text.
IsCatalogInMostPopularTable: catalog: 46761, numindb: 26
Update: records affected: 1
GetName: 46761 STARLINK-1897
Hit Count: updated at: Fri, 15 Jan 2021 23:36:38 GMT